Terug naar catalogus

STARLINK-34933

ActiefCommunicatieSSO
NORAD 65253·PAYLOAD·🇺🇸 United States

Gelanceerd Aug 18, 2025 vanaf Vandenberg Space Force Base

Loading…

Volgende Passages (komende 24 uur)

TLE

VersSource: CelesTrak SupGP

Epoch: Sep 15, 2026, 03:23 UTC

1 65253C 25179U   26258.14145833 -.00003446  00000+0 -10696-3 0  2588
2 65253  97.2833 297.4820 0001056  93.6680  55.9147 15.33442440    13

Volg STARLINK-34933 in realtime met AllMySat

Download on the App Store